Location: Newark
(31.0436°N, 112.2008°E)
Time: 13:13:19
(UTC+00:00)

N. Korean satellite - Pass Details

Date: 29 January 2020
Orbit: 456 x 505 km, 97.2° (Epoch: 24 February)

Event Time Altitude Azimuth Distance (km) Brightness Sun altitude
Rises 22:54:37 0° 353° (N) 2,561 10.0 -7.0°
Reaches altitude 10° 22:57:01 10° 338° (NNW) 1,685 8.9 -6.5°
Maximum altitude 22:59:49 22° 287° (WNW) 1,138 7.8 -5.9°
Drops below altitude 10° 23:02:39 10° 236° (SW) 1,695 9.0 -5.3°
Sets 23:05:04 0° 220° (SW) 2,580 10.0 -4.9°
